[[{"header":{"parameterUnit":"m.s-1","parameterCategory":1,"la1":30.2991,"la2":30.254,"lo1":-89.0895,"lo2":-89.0444,"dy":0.0017,"dx":0.0017,"nx":28,"ny":28,"refTime":"2025-12-24T09:00:00:Z","depth":0,"parameterNumber":2,"parameterNumberName":"U-component_of_WINDS"},"data":[0,0,0,0,0,0,0,0,0,0,0,0,0,0,0,0,0,0,0,0,0,0,0,0,0,0,0,0,0,0,0,0,0,0,0,0,0,0,0,0,0,0,0,0,0,0,0,0,0,0,0,0,0,0,0,0,0,0,0.8988,0.8989,0,0.9063,0.9064,0.9065,0.9106,0.9107,0.9107,0.9107,0.9183,0.9184,0.9186,0,0,0,0,0,0,0,0,0,0,0,0,0,0.8882,0.8884,0.8988,0.8989,0.899,0.9063,0.9064,0.9065,0.9106,0.9107,0.9107,0.9107,0.9182,0.9184,0.9186,0,0,0,0,0,0,0,0,0,0,0,0,0,0.8939,0.8884,0.8988,0.902,0.9023,0.9063,0.9064,0.9065,0.9106,0.9107,0.9107,0.9107,0.9181,0.9184,0.9187,0.92,0,0,0.9195,0.9197,0,0,0,0,0,0,0,0,0.8936,0.8943,0.9014,0.9018,0.9022,0.9076,0.9054,0.911,0.9106,0.9075,0.9107,0.9107,0.9147,0.9152,0.9166,0.9204,0.9207,0.9196,0.9197,0.9199,0.9199,0,0,0,0,0,0,0,0.8932,0.894,0.9018,0.9015,0.902,0.903,0.9038,0.9065,0.9109,0.9078,0.9081,0.9089,0.9149,0.9163,0.9168,0.9208,0.9196,0.9198,0.92,0.9201,0.9261,0.9261,0,0,0,0,0,0,0.8923,0.8937,0.9015,0.902,0.8978,0.9032,0.9041,0.9058,0.9109,0.9116,0.9089,0.9091,0.9158,0.9165,0.9171,0.919,0.9199,0.9201,0.9203,0.9261,0.9261,0.9261,0,0,0,0,0,0,0.8921,0.893,0.9012,0.8979,0.8991,0.9033,0.9052,0.9059,0.9074,0.9117,0.9125,0.9095,0.9159,0.9167,0.9193,0.9193,0.9203,0.9205,0.9261,0.9261,0.9261,0.9228,0,0,0,0,0,0,0.8917,0.8928,0.8934,0.8979,0.8992,0.9033,0.9052,0.9061,0.9079,0.9082,0.9125,0.9133,0.9159,0.9188,0.9196,0.9197,0.9207,0.9262,0.9261,0.9261,0.9229,0.9227,0.9225,0,0,0,0,0,0.8913,0.8922,0.8934,0.8943,0.9,0.9033,0.904,0.9071,0.9078,0.9084,0.9112,0.9131,0.9192,0.9191,0.9199,0.9202,0.9262,0.9261,0.9261,0.923,0.9227,0.9225,0,0,0,0,0,0,0.8875,0.8928,0.8942,0.8966,0.8994,0.904,0.9048,0.9067,0.9094,0.9096,0.9133,0.9142,0.9165,0.9186,0.9183,0.9218,0.9229,0.923,0.9203,0.92,0.9198,0.9192,0.921,0,0,0,0,0,0.8869,0.8892,0.8937,0.8953,0.8967,0.9005,0.902,0.9042,0.9073,0.9085,0.9115,0.9145,0.9171,0.9187,0.9213,0.9233,0.9243,0.9239,0.9237,0.9235,0.9235,0.9248,0.9246,0.926,0.926,0.926,0,0,0.8858,0.8889,0.8901,0.8946,0.8971,0.8993,0.9015,0.9037,0.9054,0.9089,0.9115,0.9138,0.9173,0.9196,0.9208,0.9215,0.9234,0.9234,0.9232,0.9234,0.9247,0.9246,0.9245,0.926,0.926,0.926,0,0,0.8848,0.8874,0.889,0.8915,0.8952,0.8978,0.8982,0.9025,0.9041,0.9068,0.9095,0.9115,0.9159,0.9183,0.9201,0.9201,0.922,0.9209,0.9196,0.9208,0.9207,0.9206,0.9206,0.9205,0.9209,0.9209,0.9209,0,0.8828,0.8863,0.8896,0.8917,0.8936,0.8969,0.8986,0.9008,0.9052,0.9064,0.9071,0.9127,0.9153,0.9183,0.9183,0.9196,0.9202,0.9204,0.9204,0.9204,0.9204,0.9204,0.9204,0.9208,0.9208,0.9208,0.9208,0,0.8837,0.8861,0.8869,0.8911,0.8931,0.895,0.8986,0.9003,0.9022,0.9047,0.9074,0.9107,0.914,0.9149,0.9168,0.9181,0.9184,0.9197,0.9209,0.92,0.9201,0.9201,0.9205,0.9206,0.9206,0.9207,0,0,0.8804,0.8865,0.8867,0.8887,0.8931,0.895,0.897,0.9003,0.9017,0.9046,0.9064,0.9101,0.9113,0.9134,0.9156,0.9167,0.9164,0.9179,0.918,0.9174,0.918,0.9169,0.9169,0.9177,0.9177,0.9177,0.9177,0,0.88,0.8838,0.8869,0.8896,0.8918,0.895,0.8968,0.8997,0.902,0.9043,0.9069,0.9095,0.911,0.9122,0.9134,0.9162,0.9166,0.9162,0.9194,0.9195,0.9183,0.9169,0.9158,0.9156,0.9178,0.9178,0.9178,0,0.88,0.8828,0.8857,0.8899,0.891,0.8925,0.8958,0.898,0.9013,0.903,0.9053,0.9077,0.91,0.911,0.9142,0.914,0.9154,0.917,0.9171,0.9175,0.9185,0.9172,0.9156,0.9155,0.9179,0.9178,0.9178,0,0.8772,0.8818,0.8841,0.8857,0.8907,0.8917,0.8938,0.8973,0.8991,0.9019,0.9032,0.9063,0.9079,0.9103,0.9134,0.9139,0.9163,0.9176,0.9178,0.9177,0.9181,0.918,0.9166,0.9191,0.9191,0.9191,0.9191,0,0.8763,0.878,0.8829,0.8843,0.8863,0.8899,0.8917,0.8941,0.8971,0.899,0.902,0.9038,0.9079,0.9101,0.9126,0.9149,0.9156,0.917,0.9177,0.9167,0.9165,0.9177,0.9178,0.9191,0.9191,0.9191,0.9191,0,0.8735,0.8769,0.8796,0.8842,0.8854,0.8866,0.8905,0.892,0.8946,0.897,0.8978,0.9019,0.9047,0.9081,0.912,0.9137,0.9157,0.9167,0.9146,0.9149,0.9148,0.9148,0.9141,0.9142,0.9167,0.9166,0.9166,0,0.8727,0.874,0.8788,0.8803,0.8823,0.8848,0.8867,0.8903,0.8921,0.8961,0.8971,0.9002,0.9028,0.9071,0.9104,0.9135,0.9145,0.9141,0.915,0.914,0.9144,0.9143,0.9144,0.9138,0.9137,0.9137,0.9137,0,0.8709,0.8725,0.8751,0.8783,0.8805,0.8832,0.886,0.8871,0.8912,0.8931,0.8961,0.8981,0.9022,0.9051,0.9086,0.9108,0.9129,0.9134,0.9136,0.9126,0.9113,0.9119,0.9139,0.9134,0.9134,0.9134,0.9134,0.9134,0.869,0.8703,0.8739,0.8767,0.8792,0.8818,0.8834,0.8863,0.8888,0.8924,0.8944,0.8972,0.9007,0.9055,0.9077,0.91,0.9107,0.911,0.9111,0.911,0.9107,0.911,0.9106,0.9107,0.9107,0.9107,0.9107,0,0.8673,0.8698,0.8723,0.8762,0.8784,0.8803,0.8835,0.8852,0.8877,0.8908,0.8933,0.8967,0.8997,0.9032,0.9064,0.9076,0.9086,0.9083,0.9082,0.9086,0.9099,0.9094,0.9074,0.9074,0.9074,0.9074,0.9074,0.9074,0.8666,0.869,0.8711,0.8748,0.8772,0.8801,0.8818,0.8842,0.8866,0.8903,0.8928,0.8951,0.8984,0.9018,0.9046,0.9056,0.9066,0.9059,0.9072,0.9083,0.9086,0.9088,0.9084,0.9061,0.9061,0.9057,0.9057,0.9057]},{"header":{"parameterUnit":"m.s-1","parameterCategory":1,"la1":30.2991,"la2":30.254,"lo1":-89.0895,"lo2":-89.0444,"dy":0.0017,"dx":0.0017,"nx":28,"ny":28,"refTime":"2025-12-24T09:00:00:Z","depth":0,"parameterNumber":3,"parameterNumberName":"V-component_of_WINDS"},"data":[0,0,0,0,0,0,0,0,0,0,0,0,0,0,0,0,0,0,0,0,0,0,0,0,0,0,0,0,0,0,0,0,0,0,0,0,0,0,0,0,0,0,0,0,0,0,0,0,0,0,0,0,0,0,0,0,0,0,-0.2906,-0.2906,0,-0.2939,-0.2939,-0.294,-0.2913,-0.2912,-0.2911,-0.291,-0.2947,-0.2949,-0.2951,0,0,0,0,0,0,0,0,0,0,0,0,0,-0.2823,-0.2824,-0.2906,-0.2906,-0.2907,-0.2939,-0.2939,-0.294,-0.2913,-0.2912,-0.2911,-0.2909,-0.2946,-0.2949,-0.2951,0,0,0,0,0,0,0,0,0,0,0,0,0,-0.2858,-0.2825,-0.2906,-0.2897,-0.2897,-0.2939,-0.2939,-0.294,-0.2914,-0.2912,-0.291,-0.2909,-0.2945,-0.2948,-0.2951,-0.3004,0,0,-0.2961,-0.2962,0,0,0,0,0,0,0,0,-0.2856,-0.2861,-0.2898,-0.2898,-0.2898,-0.292,-0.2923,-0.2962,-0.2914,-0.2907,-0.291,-0.2908,-0.294,-0.2943,-0.2953,-0.3006,-0.3008,-0.2961,-0.2963,-0.2964,-0.2965,0,0,0,0,0,0,0,-0.2853,-0.2859,-0.2919,-0.2899,-0.2898,-0.2893,-0.2896,-0.2931,-0.2933,-0.2908,-0.2906,-0.291,-0.2939,-0.295,-0.2954,-0.3008,-0.2961,-0.2964,-0.2965,-0.2967,-0.3106,-0.3108,0,0,0,0,0,0,-0.2851,-0.2857,-0.2918,-0.292,-0.2872,-0.2896,-0.2899,-0.2915,-0.2932,-0.2933,-0.2912,-0.2909,-0.2946,-0.295,-0.2955,-0.3018,-0.2964,-0.2967,-0.2969,-0.3104,-0.3107,-0.3109,0,0,0,0,0,0,-0.285,-0.2857,-0.2917,-0.2888,-0.2895,-0.2899,-0.2917,-0.2916,-0.2927,-0.2935,-0.2936,-0.2922,-0.2945,-0.2951,-0.2992,-0.3019,-0.2968,-0.2971,-0.3102,-0.3105,-0.3108,-0.3145,0,0,0,0,0,0,-0.2847,-0.2856,-0.2876,-0.2889,-0.2897,-0.2952,-0.2918,-0.2918,-0.2932,-0.2929,-0.2945,-0.2946,-0.2944,-0.2988,-0.2995,-0.3022,-0.2974,-0.31,-0.3104,-0.3107,-0.3141,-0.3148,-0.3155,0,0,0,0,0,-0.2844,-0.2886,-0.2877,-0.2885,-0.2921,-0.2954,-0.2959,-0.2954,-0.2934,-0.2954,-0.2959,-0.2946,-0.3015,-0.2992,-0.3,-0.3029,-0.3098,-0.3102,-0.3107,-0.3138,-0.3147,-0.3154,0,0,0,0,0,0,-0.2877,-0.2887,-0.2878,-0.2924,-0.2938,-0.2949,-0.2975,-0.2964,-0.2984,-0.2981,-0.2975,-0.2979,-0.3022,-0.303,-0.3004,-0.3081,-0.3053,-0.3059,-0.3075,-0.3083,-0.309,-0.3087,-0.2976,0,0,0,0,0,-0.2889,-0.2914,-0.2922,-0.2962,-0.297,-0.2971,-0.2985,-0.298,-0.2995,-0.3001,-0.3009,-0.3025,-0.305,-0.3067,-0.3091,-0.3142,-0.3145,-0.3166,-0.3172,-0.3178,-0.3183,-0.3211,-0.3221,-0.3123,-0.3123,-0.3123,0,0,-0.2916,-0.2924,-0.2941,-0.2969,-0.298,-0.3006,-0.2976,-0.3006,-0.3026,-0.3006,-0.3045,-0.3052,-0.3069,-0.3116,-0.3137,-0.3123,-0.3211,-0.3183,-0.3188,-0.319,-0.3217,-0.3226,-0.3234,-0.3125,-0.3125,-0.3125,0,0,-0.2977,-0.2986,-0.302,-0.3031,-0.3047,-0.3047,-0.3056,-0.3068,-0.3072,-0.3111,-0.3096,-0.3121,-0.3164,-0.3177,-0.3189,-0.3256,-0.3244,-0.3263,-0.3299,-0.3326,-0.3334,-0.3341,-0.3365,-0.3374,-0.3269,-0.3269,-0.3269,0,-0.3008,-0.3047,-0.304,-0.307,-0.3084,-0.3066,-0.3101,-0.3112,-0.3135,-0.3145,-0.313,-0.3184,-0.3194,-0.3243,-0.3259,-0.327,-0.328,-0.3262,-0.3333,-0.334,-0.3347,-0.3369,-0.3378,-0.3271,-0.3271,-0.3271,-0.327,0,-0.3084,-0.3111,-0.3138,-0.3159,-0.3175,-0.3208,-0.3207,-0.3225,-0.3218,-0.3221,-0.3261,-0.3273,-0.3298,-0.331,-0.3304,-0.3359,-0.335,-0.3334,-0.3306,-0.3358,-0.338,-0.3388,-0.3274,-0.3274,-0.3273,-0.3272,0,0,-0.3168,-0.3184,-0.3194,-0.3204,-0.322,-0.3241,-0.3273,-0.3297,-0.3313,-0.3329,-0.3357,-0.3394,-0.3379,-0.3393,-0.3389,-0.3413,-0.3465,-0.3394,-0.3394,-0.3407,-0.3526,-0.3538,-0.3548,-0.3457,-0.3459,-0.346,-0.3525,0,-0.323,-0.3285,-0.3279,-0.3332,-0.3358,-0.3341,-0.3369,-0.3383,-0.3386,-0.3408,-0.3412,-0.3439,-0.3417,-0.3425,-0.3448,-0.3454,-0.3489,-0.3449,-0.3484,-0.3485,-0.348,-0.3559,-0.3572,-0.3632,-0.3533,-0.3534,-0.3535,0,-0.331,-0.3328,-0.3383,-0.3395,-0.3406,-0.3431,-0.3453,-0.3474,-0.3489,-0.349,-0.3505,-0.3497,-0.3531,-0.3502,-0.3548,-0.3521,-0.3535,-0.354,-0.3542,-0.3546,-0.3513,-0.3565,-0.3652,-0.3661,-0.3548,-0.3547,-0.3546,0,-0.3365,-0.3404,-0.3442,-0.3451,-0.3465,-0.3484,-0.3491,-0.3504,-0.3519,-0.3538,-0.3548,-0.3571,-0.3584,-0.3603,-0.3602,-0.3581,-0.3649,-0.362,-0.3651,-0.3651,-0.3667,-0.3666,-0.3757,-0.3675,-0.3675,-0.3675,-0.3675,0,-0.3436,-0.347,-0.3467,-0.349,-0.3528,-0.3522,-0.3561,-0.3566,-0.3578,-0.3603,-0.359,-0.3614,-0.361,-0.3634,-0.3634,-0.3672,-0.3678,-0.3681,-0.368,-0.3682,-0.3682,-0.3691,-0.3687,-0.3677,-0.3677,-0.3676,-0.3676,0,-0.3504,-0.3503,-0.3544,-0.3554,-0.3558,-0.3585,-0.3595,-0.3617,-0.3619,-0.3651,-0.3658,-0.3661,-0.3689,-0.3689,-0.3721,-0.3721,-0.3768,-0.3763,-0.3763,-0.3762,-0.3793,-0.379,-0.3894,-0.3907,-0.3817,-0.3817,-0.3818,0,-0.3549,-0.3575,-0.3588,-0.3603,-0.3612,-0.3636,-0.3651,-0.3646,-0.3662,-0.3681,-0.3702,-0.3728,-0.3749,-0.3794,-0.38,-0.3824,-0.382,-0.3854,-0.3823,-0.3825,-0.3821,-0.3819,-0.3822,-0.3861,-0.3862,-0.3862,-0.3863,0,-0.363,-0.3628,-0.3649,-0.367,-0.3688,-0.3705,-0.372,-0.3734,-0.3731,-0.375,-0.3777,-0.3793,-0.3825,-0.3852,-0.3875,-0.3884,-0.3874,-0.3873,-0.3881,-0.3884,-0.3883,-0.3884,-0.378,-0.387,-0.387,-0.3869,-0.3869,-0.3868,-0.3688,-0.371,-0.3723,-0.3747,-0.3758,-0.3773,-0.3794,-0.3798,-0.3821,-0.3846,-0.3842,-0.3873,-0.3888,-0.3918,-0.3929,-0.3953,-0.3942,-0.3954,-0.3957,-0.396,-0.3964,-0.3878,-0.3958,-0.3958,-0.3957,-0.3957,-0.3957,0,-0.3768,-0.3775,-0.3797,-0.3818,-0.3838,-0.3825,-0.3841,-0.3859,-0.3886,-0.39,-0.392,-0.3952,-0.3978,-0.3986,-0.4011,-0.4029,-0.4025,-0.4036,-0.4035,-0.4037,-0.3973,-0.3963,-0.4039,-0.4039,-0.4039,-0.4039,-0.4039,-0.4039,-0.3811,-0.3848,-0.3848,-0.3891,-0.3898,-0.3927,-0.3938,-0.3951,-0.3963,-0.3998,-0.4019,-0.4024,-0.4036,-0.4061,-0.4085,-0.4086,-0.4096,-0.4109,-0.4109,-0.4049,-0.4041,-0.4033,-0.4024,-0.4111,-0.4112,-0.4171,-0.4172,-0.4172]}]]